Location: Castillon
(43.7181°N, 0.5436°E)
Time: 16:49:52
(UTC+00:00)

Daily predictions for brighter satellites

Satellite Brightness Start Highest point End
(mag) Time Altitude Azimuth Time Altitude Azimuth Time Altitude Azimuth
IRAS Rocket 4.3 18:21:39 10° NNE 18:27:20 87° ESE 18:32:58 10° SSW
Cosmos 841 Rocket 3.5 18:23:11 10° NNW 18:28:28 80° ENE 18:33:41 10° SSE
IRS-1C Rocket 4.4 18:24:57 10° SE 18:29:59 48° ENE 18:35:02 10° N
Cosmos 1814 Rocket 4.2 18:25:01 10° NNW 18:30:17 54° ENE 18:35:29 10° SE
Cosmos 1745 Rocket 4.2 18:25:03 10° S 18:31:24 83° W 18:37:45 10° N
SeaSat 1 3.1 18:27:46 10° ESE 18:32:16 37° NE 18:36:45 10° NNW
Cosmos 2344 4.4 18:25:30 10° WSW 18:32:44 52° NW 18:40:27 10° NNE
SKYMED 2 4.5 18:29:04 10° N 18:33:20 56° WNW 18:37:34 10° SSW
Okean O Rocket 2.7 18:29:21 10° S 18:33:38 50° W 18:37:56 10° NNW
ARGOS 3.2 18:28:29 10° SSE 18:33:50 90° WSW 18:39:14 10° NNW
Feng Yun 1-1 Rocket 4.2 18:29:24 10° SSE 18:34:49 87° ENE 18:40:15 10° NNW
ERBS 2.9 18:36:13 10° SSW 18:39:14 34° SE 18:42:16 10° ENE
Cosmos 1743 2.7 18:36:37 10° S 18:40:26 86° E 18:44:19 10° N
Cosmos 1975 3.9 18:38:52 10° SE 18:42:03 24° E 18:45:15 10° NE
Cosmos 1943 Rocket 3.8 18:41:33 10° ESE 18:43:43 12° E 18:45:55 10° ENE
Cosmos 968 Rocket 4.1 18:39:15 10° SSE 18:43:58 35° ESE 18:48:44 10° NE
OBJECT-B 2.5 18:41:55 10° ESE 18:44:04 17° ENE 18:46:12 10° NNE
USA 215 3.4 18:39:11 10° SE 18:45:45 82° SW 18:52:21 10° NW
Cosmos 1536 3.9 18:41:50 10° SSW 18:45:45 50° W 18:49:42 10° N
USA 305 3.4 18:42:24 10° WSW 18:46:33 60° NNW 18:50:45 10° NE
Lacrosse 5 rocket 3.9 18:45:00 10° NNW 18:47:42 15° N 18:50:23 10° NE
ISS -2.2 18:48:07 10° S 18:50:33 19° SE 18:52:24 13° E
CZ-2C R/B 3.3 18:48:20 10° N 18:53:42 62° WNW 18:59:10 10° SSW
Cosmos 921 Rocket 3.4 18:49:43 10° N 18:53:53 43° ENE 18:57:57 10° SE
USA 307 3.5 18:53:07 10° WSW 18:57:15 56° NNW 19:01:27 10° NE
SL-4 R/B 1.6 18:53:55 10° WNW 18:57:22 84° SSW 19:00:24 14° SE
Meteor 2-9 Rocket 4.3 18:56:14 10° S 19:01:55 59° E 19:07:41 10° NNE
Cosmos 1842 3.3 19:01:08 10° N 19:05:03 60° E 19:08:56 10° SSE
USA 281 4.2 19:01:32 10° NE 19:06:28 22° E 19:11:22 10° SSE
H-2A R/B 4.2 19:02:21 10° SSW 19:06:32 27° W 19:10:49 10° NW
SJ-6B 3.7 19:04:21 14° SE 19:07:18 32° ENE 19:11:00 10° N
Cosmos 1400 Rocket 4.2 19:07:16 17° ESE 19:08:37 20° E 19:11:37 10° NE
Cosmos 2221 Rocket 3.5 19:08:05 10° N 19:12:33 78° E 19:16:57 10° SSE
Cosmos 1378 Rocket 4.0 19:09:32 10° N 19:13:42 40° ENE 19:17:05 15° SE
USA 306 4.0 19:10:05 10° W 19:14:06 42° NNW 19:18:08 10° NE
YAOGAN 1 3.7 19:10:32 10° S 19:14:41 46° W 19:18:52 10° NNW
ATLAS CENTAUR R/B 3.7 19:12:29 10° N 19:15:01 14° NE 19:17:09 11° ENE
USA 308 4.0 19:12:13 10° W 19:16:17 44° NNW 19:20:22 10° NE
Cosmos 1674 4.4 19:15:52 10° NNE 19:18:00 16° ENE 19:18:00 16° ENE
CZ-3 Stage 3 4.5 18:54:17 10° SW 19:21:49 31° S 19:27:42 17° SE
Inspiration4 2.8 19:18:28 10° SW 19:22:38 52° SE 19:25:24 20° ENE
COSMOS 2406 3.5 19:17:54 10° NNW 19:23:39 69° WSW 19:29:21 10° SSE
Okean-O 3.1 19:19:18 10° S 19:23:41 64° WSW 19:28:07 10° NNW
Meteor 2-12 Rocket 4.4 19:20:59 10° S 19:27:04 69° E 19:33:09 10° NNE
Cosmos 1833 Rocket 3.4 19:21:46 10° NNW 19:27:14 54° WSW 19:32:41 10° S
Cosmos 1674 Rocket 3.5 19:23:36 10° N 19:27:59 66° E 19:31:38 14° SSE
CZ-4B R/B 2.2 19:27:31 10° N 19:30:27 46° WNW 19:33:21 10° SSW
Meteor 1-21 4.1 19:24:46 10° N 19:30:30 77° E 19:36:08 10° SSE
Cosmos 2074 Rocket 3.9 19:24:31 10° S 19:30:40 65° E 19:36:52 10° NNE
USA 186 1.1 19:30:09 46° SSE 19:30:47 72° ENE 19:33:35 10° N
In-Cosmos 22 4.2 19:25:47 10° N 19:30:58 51° ENE 19:34:23 20° SE
Lacrosse 4 Rocket 2.6 19:29:45 10° SW 19:33:36 42° NW 19:37:28 10° NNE
USA 276 3.4 19:32:09 10° SSW 19:34:01 25° S 19:34:01 25° S
Cosmos 1932 4.4 19:29:26 10° SSW 19:35:44 84° ESE 19:42:00 10° NE
Cosmos 2082 Rocket 2.2 19:32:40 10° NNW 19:38:26 90° NE 19:42:44 18° SSE
CSL-04 Rocket 3.9 19:34:18 10° S 19:39:33 69° WSW 19:44:56 10° NNW
Resurs 01 Rocket 2.8 19:40:22 25° ENE 19:40:29 25° ENE 19:44:06 10° NNE
Okean 2 3.3 19:39:33 10° N 19:43:39 90° E 19:46:18 21° S
CZ-4 R/B 4.2 19:46:50 10° SW 19:49:21 17° W 19:51:51 10° NW
Cosmos 1340 2.7 19:46:34 10° NNW 19:50:20 76° W 19:52:07 29° S
Helios 1A Rocket 2.9 19:49:39 45° SE 19:50:40 61° ENE 19:54:43 10° N
Cosmos 836 Rocket 4.4 19:45:54 10° NNW 19:51:12 78° ENE 19:53:45 31° SSE
Cosmos 1733 Rocket 4.4 19:47:51 10° SSW 19:51:56 41° WNW 19:56:03 10° N
Cosmos 1782 Rocket 4.3 19:52:42 35° ENE 19:52:42 35° ENE 19:56:05 10° NNE
CSL-04 DEB 4.2 19:48:22 10° NNE 19:52:22 73° ESE 19:55:14 18° S
Ariane Rocket 3.2 19:53:08 39° ESE 19:54:31 51° ENE 19:59:26 10° N
Cosmos 2278 Rocket 3.8 19:53:47 10° WSW 19:58:58 36° NW 20:04:11 10° N
IRS-1A Rocket 4.3 19:57:02 33° SE 19:59:35 65° ENE 20:05:24 10° N
Cosmos 2297 3.6 19:56:05 10° S 20:01:40 65° ESE 20:07:20 10° NNE
Resurs 1-3 3.4 20:06:22 57° SSE 20:07:14 83° ENE 20:11:39 10° N
Cosmos 2369 Rocket 4.2 20:12:18 13° NE 20:12:18 13° NE 20:12:59 10° NE
Cosmos 2184 Rocket 4.3 20:02:20 10° SSW 20:08:40 69° W 20:15:00 10° N
Cosmos 1626 3.7 20:05:34 10° N 20:07:23 24° NNE 20:07:23 24° NNE
Cosmos 1346 Rocket 3.9 20:05:49 10° N 20:08:29 33° NNE 20:08:29 33° NNE
SeaSat 1 3.9 20:05:24 10° S 20:09:45 33° WSW 20:14:13 10° NW
MOS 1 4.2 20:08:02 37° SSE 20:10:26 82° ENE 20:16:08 10° NNW
Cosmos 1503 Rocket 3.8 20:06:55 10° SSW 20:12:09 82° ESE 20:17:22 10° NNE
ERBS 4.3 20:12:27 10° W 20:15:18 26° NNW 20:16:20 22° N
SPOT 1/Viking Rocket 4.2 20:15:40 38° ENE 20:15:40 38° ENE 20:20:06 10° N
OBJECT-B 3.0 20:14:35 18° SW 20:15:57 24° W 20:18:40 10° NW
Landsat 7 3.9 20:16:04 57° ENE 20:16:04 57° ENE 20:20:39 10° N
Cosmos 962 Rocket 4.5 20:16:02 47° SE 20:17:30 58° E 20:23:32 10° NNE
Cosmos 1707 3.9 20:14:01 10° NNW 20:17:42 41° W 20:19:14 27° SW
COSMOS 2455 2.8 20:12:21 10° NNW 20:18:22 67° ENE 20:19:34 54° ESE
IGS 5A 3.6 20:19:04 60° NNE 20:19:04 60° NNE 20:22:38 10° N
Cosmos 1238 Rocket 4.3 20:14:35 10° SSW 20:21:09 69° W 20:27:22 10° N
Cosmos 1975 Rocket 3.5 20:18:37 10° N 20:22:05 49° NNE 20:22:05 49° NNE
Cosmos 1354 Rocket 3.9 20:18:29 10° SSW 20:23:45 87° ESE 20:29:02 10° NNE
Cosmos 2154 Rocket 4.2 20:20:04 10° SSW 20:26:23 72° W 20:32:46 10° N
Cosmos 1943 Rocket 2.0 20:21:01 10° SSW 20:26:34 90° ESE 20:32:12 10° NNE
ISS -1.8 20:23:46 10° WSW 20:25:26 26° WSW 20:25:26 26° WSW
Lacrosse 5 rocket 3.0 20:24:19 10° NNW 20:28:07 27° NNE 20:28:07 27° NNE
Cosmos 1461 3.8 20:31:28 10° NNW 20:34:13 41° NNW 20:34:13 41° NNW
SL-4 R/B 4.4 20:34:54 10° WSW 20:35:57 12° WSW 20:35:57 12° WSW
EO 1 Delta rocket 3.9 20:36:54 69° WSW 20:37:08 71° W 20:41:59 10° NNW
SPOT 5 4.5 20:43:03 26° NE 20:43:03 26° NE 20:46:10 10° N
Cosmos 1025 Rocket 4.4 20:38:00 10° N 20:40:23 30° NNE 20:40:23 30° NNE
Meteor 1-12 Rocket 4.4 20:40:16 38° SSW 20:42:44 81° W 20:48:47 10° N
USA 281 3.3 20:44:56 10° NNE 20:51:29 72° WNW 20:58:00 10° SW
SL-8 Rocket 4.0 20:52:19 69° NE 20:52:19 69° NE 20:58:04 10° NNE
ATLAS CENTAUR R/B 2.6 20:50:02 10° NNW 20:53:17 44° NNW 20:53:17 44° NNW
Cosmos 1339 Rocket 4.4 20:55:07 10° N 21:01:14 85° NNW 21:01:14 85° NNW
Inspiration4 4.4 20:58:54 10° W 21:01:36 31° WNW 21:01:36 31° WNW
Cosmos 2341 Rocket 4.1 21:03:33 64° SW 21:04:25 73° W 21:10:48 10° N
Meteor 2-5 Rocket 4.3 21:09:18 10° N 21:13:17 49° N 21:13:17 49° N
BREEZE-M DEB (TANK) 4.3 21:00:25 10° WNW 21:15:15 79° SW 21:15:15 79° SW
SPOT 3 Rocket 4.4 21:16:41 47° WNW 21:16:41 47° WNW 21:20:47 10° NNW
Resurs 01 Rocket 3.4 21:17:56 29° WNW 21:17:56 29° WNW 21:20:51 10° NNW
Cosmos 2218 Rocket 4.4 21:29:22 56° NNW 21:29:22 56° NNW 21:34:18 10° N
FALCON 9 R/B 4.5 20:48:23 10° WSW 21:29:29 39° SSW 21:31:02 38° S
Cosmos 2366 rocket 4.5 21:31:14 54° NNW 21:31:14 54° NNW 21:36:04 10° N
Terra 4.0 21:35:09 20° N 21:35:09 20° N 21:36:42 10° N
Cosmos 2369 Rocket 3.8 21:54:02 30° NNW 21:54:02 30° NNW 21:57:18 10° NNE
